Cloud_Cover
5 4 2 1 0 0 0 0 0 0 0 0 0 0 0 0 0 0 0 0 0 1 8 24 47 34 10 5 76 75 70 88 71 1 5 5 3 0 0 0 0 0 0
5 2 0 0 0 0 0 0 0 0 0 0 0 0 0 0 0 0 0 0 0 0 1 8 6 6 25 74 74 33 57 96 87 5 5 5 5 4 0 0 0 0 0
5 5 4 0 0 0 0 0 0 0 0 0 0 0 0 0 0 0 0 0 2 5 5 5 5 20 40 92 95 33 15 5 5 5 5 5 18 5 12 4 1 0 0
0 0 0 0 0 0 0 0 3 0 0 0 0 0 0 0 0 0 3 5 5 5 6 6 92 92 90 13 47 57 34 43 72 97 100 38 38 79 36 8 36 12 5
0 0 0 0 0 0 0 4 4 0 0 0 0 0 0 0 0 5 8 78 93 96 78 96 96 91 100 100 100 89 100 100 100 100 100 100 100 100 100 89 39 98 84
0 0 0 0 0 0 0 0 0 0 0 0 0 0 0 0 5 5 100 100 100 100 94 75 100 100 98 100 100 100 100 100 100 100 100 100 100 100 100 100 100 100 79
0 0 0 0 1 0 0 0 0 0 0 0 0 0 0 2 2 97 100 100 100 100 100 100 100 100 100 100 100 100 100 100 100 91 87 88 99 100 100 100 100 100 99
0 0 0 2 0 0 0 0 0 0 0 0 0 0 0 0 5 57 100 100 100 100 100 100 100 100 100 100 100 100 100 100 100 100 96 60 98 99 100 100 97 100 93
0 2 30 5 1 0 0 0 0 0 0 0 0 0 5 84 71 68 100 100 100 100 100 95 97 95 100 100 98 100 100 100 100 97 75 98 100 100 100 100 100 100 100
11 98 38 5 5 2 5 0 5 0 5 5 15 98 100 100 73 94 100 100 100 100 100 100 98 100 80 77 77 87 95 100 98 100 100 100 99 100 100 79 100 100 100
12 1 5 5 5 5 5 5 5 5 6 98 100 100 98 100 100 100 100 100 100 100 100 100 100 99 88 100 100 100 84 100 100 100 100 98 96 100 100 100 100 100 100
0 5 5 5 5 5 5 5 5 14 100 100 100 100 100 100 100 100 100 100 100 100 74 100 100 98 99 99 84 94 100 100 100 100 100 100 100 100 100 100 100 100 100
0 5 5 5 5 5 5 5 31 98 100 100 100 100 100 100 100 100 100 100 100 100 99 99 72 88 84 46 100 100 100 100 100 100 100 100 100 100 100 100 100 100 100
5 5 5 5 5 5 5 19 96 100 100 100 100 100 100 89 100 100 100 100 100 100 95 98 94 41 33 100 100 100 100 100 100 51 65 88 100 91 74 94 99 100 100
5 5 5 5 5 5 56 68 100 100 100 100 100 100 100 100 100 100 100 100 100 95 100 62 45 7 98 100 100 100 100 100 73 86 84 100 100 97 100 98 100 100 100
5 5 5 5 5 44 100 100 100 100 100 100 95 100 100 100 100 100 100 99 99 88 93 71 67 38 97 100 100 100 100 100 100 100 90 100 100 100 100 100 98 100 95
7 5 5 5 56 100 100 100 100 100 100 100 100 98 100 100 100 100 100 100 100 100 100 100 100 100 83 100 100 100 100 100 100 100 100 100 100 100 100 100 100 100 100
9 54 5 17 83 100 99 98 100 100 100 100 100 94 93 100 100 97 98 100 100 100 100 100 100 100 100 87 100 100 100 97 100 100 100 100 100 100 100 100 100 100 100
16 6 5 22 98 100 98 87 100 100 100 100 100 100 100 100 100 100 100 100 100 100 100 100 100 100 96 100 100 100 100 100 100 100 100 100 100 100 100 100 100 100 100
34 5 28 58 94 96 100 92 97 91 96 100 100 100 100 100 100 100 100 100 100 100 100 100 100 100 100 100 100 100 100 100 100 100 100 100 100 100 100 100 100 100 100
5 13 52 71 84 91 100 89 88 100 100 100 100 100 100 100 100 100 100 100 100 100 100 100 100 100 100 100 100 100 100 99 91 100 100 100 100 100 100 100 100 100 100
8 35 36 99 100 89 82 76 100 100 100 100 100 100 100 100 100 100 100 100 100 100 100 100 100 100 100 100 100 100 100 91 98 100 100 100 100 100 100 100 100 100 100
10 6 5 76 97 93 96 100 100 100 98 95 100 100 100 100 100 100 100 100 100 100 100 100 100 100 100 100 100 100 100 100 94 100 100 100 100 100 94 100 100 100 100
5 5 5 47 57 93 100 100 99 96 82 77 100 100 99 100 100 100 100 100 100 100 100 100 100 100 100 100 100 100 100 100 87 98 100 98 100 100 100 100 100 100 100
5 5 5 5 76 100 100 100 89 92 85 100 100 93 90 100 100 100 100 100 100 100 100 100 100 100 100 100 100 100 100 100 78 97 88 100 100 100 98 100 100 98 93
5 5 5 11 90 100 100 100 85 98 92 100 100 80 94 100 100 100 100 100 100 100 100 100 100 100 100 100 100 100 100 100 55 96 96 100 100 100 97 54 100 87 100